Index of /20260501/WXO-DD/model_rdps/10km/00/005
Name Last modified Size Description
Parent Directory -
20260501T00Z_MSC_RDPS_AbsoluteVorticity_IsbL-0250_RLatLon0.09_PT005H.grib2 2026-05-01 02:44 612K
20260501T00Z_MSC_RDPS_AbsoluteVorticity_IsbL-0500_RLatLon0.09_PT005H.grib2 2026-05-01 02:44 552K
20260501T00Z_MSC_RDPS_AbsoluteVorticity_IsbL-0700_RLatLon0.09_PT005H.grib2 2026-05-01 02:44 624K
20260501T00Z_MSC_RDPS_AbsoluteVorticity_IsbL-0850_RLatLon0.09_PT005H.grib2 2026-05-01 02:44 765K
20260501T00Z_MSC_RDPS_AirTemp_AGL-120m_RLatLon0.09_PT005H.grib2 2026-05-01 02:44 382K
20260501T00Z_MSC_RDPS_AirTemp_AGL-2m_RLatLon0.09_PT005H.grib2 2026-05-01 02:44 618K
20260501T00Z_MSC_RDPS_AirTemp_AGL-40m_RLatLon0.09_PT005H.grib2 2026-05-01 02:44 399K
20260501T00Z_MSC_RDPS_AirTemp_AGL-80m_RLatLon0.09_PT005H.grib2 2026-05-01 02:44 389K
20260501T00Z_MSC_RDPS_AirTemp_IsbL-0001_RLatLon0.09_PT005H.grib2 2026-05-01 02:44 246K
20260501T00Z_MSC_RDPS_AirTemp_IsbL-0005_RLatLon0.09_PT005H.grib2 2026-05-01 02:44 276K
20260501T00Z_MSC_RDPS_AirTemp_IsbL-0010_RLatLon0.09_PT005H.grib2 2026-05-01 02:44 285K
20260501T00Z_MSC_RDPS_AirTemp_IsbL-0020_RLatLon0.09_PT005H.grib2 2026-05-01 02:44 298K
20260501T00Z_MSC_RDPS_AirTemp_IsbL-0030_RLatLon0.09_PT005H.grib2 2026-05-01 02:44 318K
20260501T00Z_MSC_RDPS_AirTemp_IsbL-0050_RLatLon0.09_PT005H.grib2 2026-05-01 02:44 297K
20260501T00Z_MSC_RDPS_AirTemp_IsbL-0100_RLatLon0.09_PT005H.grib2 2026-05-01 02:44 410K
20260501T00Z_MSC_RDPS_AirTemp_IsbL-0150_RLatLon0.09_PT005H.grib2 2026-05-01 02:44 442K
20260501T00Z_MSC_RDPS_AirTemp_IsbL-0175_RLatLon0.09_PT005H.grib2 2026-05-01 02:44 407K
20260501T00Z_MSC_RDPS_AirTemp_IsbL-0200_RLatLon0.09_PT005H.grib2 2026-05-01 02:44 412K
20260501T00Z_MSC_RDPS_AirTemp_IsbL-0225_RLatLon0.09_PT005H.grib2 2026-05-01 02:44 413K
20260501T00Z_MSC_RDPS_AirTemp_IsbL-0250_RLatLon0.09_PT005H.grib2 2026-05-01 02:44 422K
20260501T00Z_MSC_RDPS_AirTemp_IsbL-0275_RLatLon0.09_PT005H.grib2 2026-05-01 02:44 402K
20260501T00Z_MSC_RDPS_AirTemp_IsbL-0300_RLatLon0.09_PT005H.grib2 2026-05-01 02:44 408K
20260501T00Z_MSC_RDPS_AirTemp_IsbL-0350_RLatLon0.09_PT005H.grib2 2026-05-01 02:44 423K
20260501T00Z_MSC_RDPS_AirTemp_IsbL-0400_RLatLon0.09_PT005H.grib2 2026-05-01 02:44 425K
20260501T00Z_MSC_RDPS_AirTemp_IsbL-0450_RLatLon0.09_PT005H.grib2 2026-05-01 02:44 396K
20260501T00Z_MSC_RDPS_AirTemp_IsbL-0500_RLatLon0.09_PT005H.grib2 2026-05-01 02:44 406K
20260501T00Z_MSC_RDPS_AirTemp_IsbL-0550_RLatLon0.09_PT005H.grib2 2026-05-01 02:44 424K
20260501T00Z_MSC_RDPS_AirTemp_IsbL-0600_RLatLon0.09_PT005H.grib2 2026-05-01 02:44 445K
20260501T00Z_MSC_RDPS_AirTemp_IsbL-0650_RLatLon0.09_PT005H.grib2 2026-05-01 02:44 462K
20260501T00Z_MSC_RDPS_AirTemp_IsbL-0700_RLatLon0.09_PT005H.grib2 2026-05-01 02:44 379K
20260501T00Z_MSC_RDPS_AirTemp_IsbL-0750_RLatLon0.09_PT005H.grib2 2026-05-01 02:44 407K
20260501T00Z_MSC_RDPS_AirTemp_IsbL-0800_RLatLon0.09_PT005H.grib2 2026-05-01 02:44 443K
20260501T00Z_MSC_RDPS_AirTemp_IsbL-0850_RLatLon0.09_PT005H.grib2 2026-05-01 02:44 484K
20260501T00Z_MSC_RDPS_AirTemp_IsbL-0875_RLatLon0.09_PT005H.grib2 2026-05-01 02:44 501K
20260501T00Z_MSC_RDPS_AirTemp_IsbL-0900_RLatLon0.09_PT005H.grib2 2026-05-01 02:44 510K
20260501T00Z_MSC_RDPS_AirTemp_IsbL-0925_RLatLon0.09_PT005H.grib2 2026-05-01 02:44 511K
20260501T00Z_MSC_RDPS_AirTemp_IsbL-0950_RLatLon0.09_PT005H.grib2 2026-05-01 02:44 517K
20260501T00Z_MSC_RDPS_AirTemp_IsbL-0970_RLatLon0.09_PT005H.grib2 2026-05-01 02:44 510K
20260501T00Z_MSC_RDPS_AirTemp_IsbL-0985_RLatLon0.09_PT005H.grib2 2026-05-01 02:44 497K
20260501T00Z_MSC_RDPS_AirTemp_IsbL-1000_RLatLon0.09_PT005H.grib2 2026-05-01 02:44 479K
20260501T00Z_MSC_RDPS_AirTemp_IsbL-1015_RLatLon0.09_PT005H.grib2 2026-05-01 02:44 476K
20260501T00Z_MSC_RDPS_Albedo_Sfc_RLatLon0.09_PT005H.grib2 2026-05-01 02:44 158K
20260501T00Z_MSC_RDPS_CAPE_Sfc_RLatLon0.09_PT005H.grib2 2026-05-01 02:44 1.6M
20260501T00Z_MSC_RDPS_CIN_Sfc_RLatLon0.09_PT005H.grib2 2026-05-01 02:44 1.1M
20260501T00Z_MSC_RDPS_CloudWater_EAtm_RLatLon0.09_PT005H.grib2 2026-05-01 02:44 216K
20260501T00Z_MSC_RDPS_ConvectivePrecip-Accum_Sfc_RLatLon0.09_PT005H.grib2 2026-05-01 02:44 461K
20260501T00Z_MSC_RDPS_DewPointDepression_AGL-2m_RLatLon0.09_PT005H.grib2 2026-05-01 02:44 389K
20260501T00Z_MSC_RDPS_DewPointDepression_IsbL-0001_RLatLon0.09_PT005H.grib2 2026-05-01 02:44 193
20260501T00Z_MSC_RDPS_DewPointDepression_IsbL-0005_RLatLon0.09_PT005H.grib2 2026-05-01 02:44 193
20260501T00Z_MSC_RDPS_DewPointDepression_IsbL-0010_RLatLon0.09_PT005H.grib2 2026-05-01 02:44 193
20260501T00Z_MSC_RDPS_DewPointDepression_IsbL-0020_RLatLon0.09_PT005H.grib2 2026-05-01 02:44 193
20260501T00Z_MSC_RDPS_DewPointDepression_IsbL-0030_RLatLon0.09_PT005H.grib2 2026-05-01 02:44 193
20260501T00Z_MSC_RDPS_DewPointDepression_IsbL-0050_RLatLon0.09_PT005H.grib2 2026-05-01 02:44 79K
20260501T00Z_MSC_RDPS_DewPointDepression_IsbL-0100_RLatLon0.09_PT005H.grib2 2026-05-01 02:44 126K
20260501T00Z_MSC_RDPS_DewPointDepression_IsbL-0150_RLatLon0.09_PT005H.grib2 2026-05-01 02:44 150K
20260501T00Z_MSC_RDPS_DewPointDepression_IsbL-0175_RLatLon0.09_PT005H.grib2 2026-05-01 02:44 182K
20260501T00Z_MSC_RDPS_DewPointDepression_IsbL-0200_RLatLon0.09_PT005H.grib2 2026-05-01 02:44 221K
20260501T00Z_MSC_RDPS_DewPointDepression_IsbL-0225_RLatLon0.09_PT005H.grib2 2026-05-01 02:44 262K
20260501T00Z_MSC_RDPS_DewPointDepression_IsbL-0250_RLatLon0.09_PT005H.grib2 2026-05-01 02:44 300K
20260501T00Z_MSC_RDPS_DewPointDepression_IsbL-0275_RLatLon0.09_PT005H.grib2 2026-05-01 02:44 305K
20260501T00Z_MSC_RDPS_DewPointDepression_IsbL-0300_RLatLon0.09_PT005H.grib2 2026-05-01 02:44 324K
20260501T00Z_MSC_RDPS_DewPointDepression_IsbL-0350_RLatLon0.09_PT005H.grib2 2026-05-01 02:44 329K
20260501T00Z_MSC_RDPS_DewPointDepression_IsbL-0400_RLatLon0.09_PT005H.grib2 2026-05-01 02:44 338K
20260501T00Z_MSC_RDPS_DewPointDepression_IsbL-0450_RLatLon0.09_PT005H.grib2 2026-05-01 02:44 342K
20260501T00Z_MSC_RDPS_DewPointDepression_IsbL-0500_RLatLon0.09_PT005H.grib2 2026-05-01 02:44 343K
20260501T00Z_MSC_RDPS_DewPointDepression_IsbL-0550_RLatLon0.09_PT005H.grib2 2026-05-01 02:44 356K
20260501T00Z_MSC_RDPS_DewPointDepression_IsbL-0600_RLatLon0.09_PT005H.grib2 2026-05-01 02:44 371K
20260501T00Z_MSC_RDPS_DewPointDepression_IsbL-0650_RLatLon0.09_PT005H.grib2 2026-05-01 02:44 378K
20260501T00Z_MSC_RDPS_DewPointDepression_IsbL-0700_RLatLon0.09_PT005H.grib2 2026-05-01 02:44 389K
20260501T00Z_MSC_RDPS_DewPointDepression_IsbL-0750_RLatLon0.09_PT005H.grib2 2026-05-01 02:44 406K
20260501T00Z_MSC_RDPS_DewPointDepression_IsbL-0800_RLatLon0.09_PT005H.grib2 2026-05-01 02:44 430K
20260501T00Z_MSC_RDPS_DewPointDepression_IsbL-0850_RLatLon0.09_PT005H.grib2 2026-05-01 02:44 453K
20260501T00Z_MSC_RDPS_DewPointDepression_IsbL-0875_RLatLon0.09_PT005H.grib2 2026-05-01 02:44 457K
20260501T00Z_MSC_RDPS_DewPointDepression_IsbL-0900_RLatLon0.09_PT005H.grib2 2026-05-01 02:44 452K
20260501T00Z_MSC_RDPS_DewPointDepression_IsbL-0925_RLatLon0.09_PT005H.grib2 2026-05-01 02:44 442K
20260501T00Z_MSC_RDPS_DewPointDepression_IsbL-0950_RLatLon0.09_PT005H.grib2 2026-05-01 02:44 440K
20260501T00Z_MSC_RDPS_DewPointDepression_IsbL-0970_RLatLon0.09_PT005H.grib2 2026-05-01 02:44 429K
20260501T00Z_MSC_RDPS_DewPointDepression_IsbL-0985_RLatLon0.09_PT005H.grib2 2026-05-01 02:44 422K
20260501T00Z_MSC_RDPS_DewPointDepression_IsbL-1000_RLatLon0.09_PT005H.grib2 2026-05-01 02:44 413K
20260501T00Z_MSC_RDPS_DewPointDepression_IsbL-1015_RLatLon0.09_PT005H.grib2 2026-05-01 02:44 403K
20260501T00Z_MSC_RDPS_DewPoint_AGL-2m_RLatLon0.09_PT005H.grib2 2026-05-01 02:44 298K
20260501T00Z_MSC_RDPS_DownwardLongwaveRadiationFlux-Accum_Sfc_RLatLon0.09_PT005H.grib2 2026-05-01 02:44 467K
20260501T00Z_MSC_RDPS_DownwardShortwaveRadiationFlux-Accum_NTAtm_RLatLon0.09_PT005H.grib2 2026-05-01 02:44 114K
20260501T00Z_MSC_RDPS_DownwardShortwaveRadiationFlux-Accum_Sfc_RLatLon0.09_PT005H.grib2 2026-05-01 02:44 303K
20260501T00Z_MSC_RDPS_FreezingRain-Accum1h_Sfc_RLatLon0.09_PT005H.grib2 2026-05-01 02:44 33K
20260501T00Z_MSC_RDPS_FreezingRain-Accum_Sfc_RLatLon0.09_PT005H.grib2 2026-05-01 02:44 49K
20260501T00Z_MSC_RDPS_GeopotentialHeight_IsbL-0001_RLatLon0.09_PT005H.grib2 2026-05-01 02:44 233K
20260501T00Z_MSC_RDPS_GeopotentialHeight_IsbL-0005_RLatLon0.09_PT005H.grib2 2026-05-01 02:44 294K
20260501T00Z_MSC_RDPS_GeopotentialHeight_IsbL-0010_RLatLon0.09_PT005H.grib2 2026-05-01 02:44 296K
20260501T00Z_MSC_RDPS_GeopotentialHeight_IsbL-0020_RLatLon0.09_PT005H.grib2 2026-05-01 02:44 295K
20260501T00Z_MSC_RDPS_GeopotentialHeight_IsbL-0030_RLatLon0.09_PT005H.grib2 2026-05-01 02:44 296K
20260501T00Z_MSC_RDPS_GeopotentialHeight_IsbL-0050_RLatLon0.09_PT005H.grib2 2026-05-01 02:44 299K
20260501T00Z_MSC_RDPS_GeopotentialHeight_IsbL-0100_RLatLon0.09_PT005H.grib2 2026-05-01 02:44 278K
20260501T00Z_MSC_RDPS_GeopotentialHeight_IsbL-0150_RLatLon0.09_PT005H.grib2 2026-05-01 02:44 224K
20260501T00Z_MSC_RDPS_GeopotentialHeight_IsbL-0175_RLatLon0.09_PT005H.grib2 2026-05-01 02:44 228K
20260501T00Z_MSC_RDPS_GeopotentialHeight_IsbL-0200_RLatLon0.09_PT005H.grib2 2026-05-01 02:44 262K
20260501T00Z_MSC_RDPS_GeopotentialHeight_IsbL-0225_RLatLon0.09_PT005H.grib2 2026-05-01 02:44 264K
20260501T00Z_MSC_RDPS_GeopotentialHeight_IsbL-0250_RLatLon0.09_PT005H.grib2 2026-05-01 02:44 265K
20260501T00Z_MSC_RDPS_GeopotentialHeight_IsbL-0275_RLatLon0.09_PT005H.grib2 2026-05-01 02:44 264K
20260501T00Z_MSC_RDPS_GeopotentialHeight_IsbL-0300_RLatLon0.09_PT005H.grib2 2026-05-01 02:44 234K
20260501T00Z_MSC_RDPS_GeopotentialHeight_IsbL-0350_RLatLon0.09_PT005H.grib2 2026-05-01 02:44 229K
20260501T00Z_MSC_RDPS_GeopotentialHeight_IsbL-0400_RLatLon0.09_PT005H.grib2 2026-05-01 02:44 226K
20260501T00Z_MSC_RDPS_GeopotentialHeight_IsbL-0450_RLatLon0.09_PT005H.grib2 2026-05-01 02:44 294K
20260501T00Z_MSC_RDPS_GeopotentialHeight_IsbL-0500_RLatLon0.09_PT005H.grib2 2026-05-01 02:44 289K
20260501T00Z_MSC_RDPS_GeopotentialHeight_IsbL-0550_RLatLon0.09_PT005H.grib2 2026-05-01 02:44 285K
20260501T00Z_MSC_RDPS_GeopotentialHeight_IsbL-0600_RLatLon0.09_PT005H.grib2 2026-05-01 02:44 281K
20260501T00Z_MSC_RDPS_GeopotentialHeight_IsbL-0650_RLatLon0.09_PT005H.grib2 2026-05-01 02:44 252K
20260501T00Z_MSC_RDPS_GeopotentialHeight_IsbL-0700_RLatLon0.09_PT005H.grib2 2026-05-01 02:44 332K
20260501T00Z_MSC_RDPS_GeopotentialHeight_IsbL-0750_RLatLon0.09_PT005H.grib2 2026-05-01 02:44 334K
20260501T00Z_MSC_RDPS_GeopotentialHeight_IsbL-0800_RLatLon0.09_PT005H.grib2 2026-05-01 02:44 341K
20260501T00Z_MSC_RDPS_GeopotentialHeight_IsbL-0850_RLatLon0.09_PT005H.grib2 2026-05-01 02:44 347K
20260501T00Z_MSC_RDPS_GeopotentialHeight_IsbL-0875_RLatLon0.09_PT005H.grib2 2026-05-01 02:44 350K
20260501T00Z_MSC_RDPS_GeopotentialHeight_IsbL-0900_RLatLon0.09_PT005H.grib2 2026-05-01 02:44 385K
20260501T00Z_MSC_RDPS_GeopotentialHeight_IsbL-0925_RLatLon0.09_PT005H.grib2 2026-05-01 02:44 389K
20260501T00Z_MSC_RDPS_GeopotentialHeight_IsbL-0950_RLatLon0.09_PT005H.grib2 2026-05-01 02:44 360K
20260501T00Z_MSC_RDPS_GeopotentialHeight_IsbL-0970_RLatLon0.09_PT005H.grib2 2026-05-01 02:44 368K
20260501T00Z_MSC_RDPS_GeopotentialHeight_IsbL-0985_RLatLon0.09_PT005H.grib2 2026-05-01 02:44 375K
20260501T00Z_MSC_RDPS_GeopotentialHeight_IsbL-1000_RLatLon0.09_PT005H.grib2 2026-05-01 02:44 386K
20260501T00Z_MSC_RDPS_GeopotentialHeight_IsbL-1015_RLatLon0.09_PT005H.grib2 2026-05-01 02:44 399K
20260501T00Z_MSC_RDPS_Humidex_Sfc_RLatLon0.09_PT005H.grib2 2026-05-01 02:44 2.4M
20260501T00Z_MSC_RDPS_IcePellets-Accum1h_Sfc_RLatLon0.09_PT005H.grib2 2026-05-01 02:44 2.7K
20260501T00Z_MSC_RDPS_IcePellets-Accum_Sfc_RLatLon0.09_PT005H.grib2 2026-05-01 02:44 3.4K
20260501T00Z_MSC_RDPS_KIndex_Sfc_RLatLon0.09_PT005H.grib2 2026-05-01 02:44 2.4M
20260501T00Z_MSC_RDPS_LatentHeatNetFlux_Sfc_RLatLon0.09_PT005H.grib2 2026-05-01 02:44 386K
20260501T00Z_MSC_RDPS_LiftedIndex-MU-VT_IsbL-0500_RLatLon0.09_PT005H.grib2 2026-05-01 02:44 2.4M
20260501T00Z_MSC_RDPS_NetLongwaveRadiationFlux-Accum_Sfc_RLatLon0.09_PT005H.grib2 2026-05-01 02:44 639K
20260501T00Z_MSC_RDPS_NetShortwaveRadiationFlux-Accum_Sfc_RLatLon0.09_PT005H.grib2 2026-05-01 02:44 281K
20260501T00Z_MSC_RDPS_PlanetaryBoundaryLayerHeight_Sfc_RLatLon0.09_PT005H.grib2 2026-05-01 02:44 1.1M
20260501T00Z_MSC_RDPS_Precip-Accum1h_Sfc_RLatLon0.09_PT005H.grib2 2026-05-01 02:44 1.1M
20260501T00Z_MSC_RDPS_Precip-Accum_Sfc_RLatLon0.09_PT005H.grib2 2026-05-01 02:44 1.3M
20260501T00Z_MSC_RDPS_PrecipRate_Sfc_RLatLon0.09_PT005H.grib2 2026-05-01 02:44 164K
20260501T00Z_MSC_RDPS_PrecipType-Instant_Sfc_RLatLon0.09_PT005H.grib2 2026-05-01 02:44 538K
20260501T00Z_MSC_RDPS_Pressure-Trend3h_Sfc_RLatLon0.09_PT005H.grib2 2026-05-01 02:44 1.2M
20260501T00Z_MSC_RDPS_Pressure_MSL_RLatLon0.09_PT005H.grib2 2026-05-01 02:44 320K
20260501T00Z_MSC_RDPS_Pressure_PVU-1.5_RLatLon0.09_PT005H.grib2 2026-05-01 02:44 2.3M
20260501T00Z_MSC_RDPS_Pressure_PVU-1_RLatLon0.09_PT005H.grib2 2026-05-01 02:44 2.4M
20260501T00Z_MSC_RDPS_Pressure_PVU-2_RLatLon0.09_PT005H.grib2 2026-05-01 02:44 2.4M
20260501T00Z_MSC_RDPS_Pressure_Sfc_RLatLon0.09_PT005H.grib2 2026-05-01 02:44 499K
20260501T00Z_MSC_RDPS_RadiativeTemp_Sfc_RLatLon0.09_PT005H.grib2 2026-05-01 02:44 294K
20260501T00Z_MSC_RDPS_Rain-Accum1h_Sfc_RLatLon0.09_PT005H.grib2 2026-05-01 02:44 558K
20260501T00Z_MSC_RDPS_Rain-Accum_Sfc_RLatLon0.09_PT005H.grib2 2026-05-01 02:44 940K
20260501T00Z_MSC_RDPS_RelativeHumidity_AGL-2m_RLatLon0.09_PT005H.grib2 2026-05-01 02:44 1.0M
20260501T00Z_MSC_RDPS_RelativeHumidity_IsbL-0010_RLatLon0.09_PT005H.grib2 2026-05-01 02:44 638K
20260501T00Z_MSC_RDPS_RelativeHumidity_IsbL-0020_RLatLon0.09_PT005H.grib2 2026-05-01 02:44 674K
20260501T00Z_MSC_RDPS_RelativeHumidity_IsbL-0030_RLatLon0.09_PT005H.grib2 2026-05-01 02:44 595K
20260501T00Z_MSC_RDPS_RelativeHumidity_IsbL-0050_RLatLon0.09_PT005H.grib2 2026-05-01 02:44 305K
20260501T00Z_MSC_RDPS_RelativeHumidity_IsbL-0100_RLatLon0.09_PT005H.grib2 2026-05-01 02:44 279K
20260501T00Z_MSC_RDPS_RelativeHumidity_IsbL-0150_RLatLon0.09_PT005H.grib2 2026-05-01 02:44 405K
20260501T00Z_MSC_RDPS_RelativeHumidity_IsbL-0175_RLatLon0.09_PT005H.grib2 2026-05-01 02:44 475K
20260501T00Z_MSC_RDPS_RelativeHumidity_IsbL-0200_RLatLon0.09_PT005H.grib2 2026-05-01 02:44 557K
20260501T00Z_MSC_RDPS_RelativeHumidity_IsbL-0225_RLatLon0.09_PT005H.grib2 2026-05-01 02:44 623K
20260501T00Z_MSC_RDPS_RelativeHumidity_IsbL-0250_RLatLon0.09_PT005H.grib2 2026-05-01 02:44 693K
20260501T00Z_MSC_RDPS_RelativeHumidity_IsbL-0275_RLatLon0.09_PT005H.grib2 2026-05-01 02:44 716K
20260501T00Z_MSC_RDPS_RelativeHumidity_IsbL-0300_RLatLon0.09_PT005H.grib2 2026-05-01 02:44 758K
20260501T00Z_MSC_RDPS_RelativeHumidity_IsbL-0350_RLatLon0.09_PT005H.grib2 2026-05-01 02:44 776K
20260501T00Z_MSC_RDPS_RelativeHumidity_IsbL-0400_RLatLon0.09_PT005H.grib2 2026-05-01 02:44 788K
20260501T00Z_MSC_RDPS_RelativeHumidity_IsbL-0450_RLatLon0.09_PT005H.grib2 2026-05-01 02:44 789K
20260501T00Z_MSC_RDPS_RelativeHumidity_IsbL-0500_RLatLon0.09_PT005H.grib2 2026-05-01 02:44 797K
20260501T00Z_MSC_RDPS_RelativeHumidity_IsbL-0550_RLatLon0.09_PT005H.grib2 2026-05-01 02:44 817K
20260501T00Z_MSC_RDPS_RelativeHumidity_IsbL-0600_RLatLon0.09_PT005H.grib2 2026-05-01 02:44 845K
20260501T00Z_MSC_RDPS_RelativeHumidity_IsbL-0650_RLatLon0.09_PT005H.grib2 2026-05-01 02:44 862K
20260501T00Z_MSC_RDPS_RelativeHumidity_IsbL-0700_RLatLon0.09_PT005H.grib2 2026-05-01 02:44 887K
20260501T00Z_MSC_RDPS_RelativeHumidity_IsbL-0750_RLatLon0.09_PT005H.grib2 2026-05-01 02:44 923K
20260501T00Z_MSC_RDPS_RelativeHumidity_IsbL-0800_RLatLon0.09_PT005H.grib2 2026-05-01 02:44 973K
20260501T00Z_MSC_RDPS_RelativeHumidity_IsbL-0850_RLatLon0.09_PT005H.grib2 2026-05-01 02:44 1.0M
20260501T00Z_MSC_RDPS_RelativeHumidity_IsbL-0875_RLatLon0.09_PT005H.grib2 2026-05-01 02:44 1.0M
20260501T00Z_MSC_RDPS_RelativeHumidity_IsbL-0900_RLatLon0.09_PT005H.grib2 2026-05-01 02:44 1.0M
20260501T00Z_MSC_RDPS_RelativeHumidity_IsbL-0925_RLatLon0.09_PT005H.grib2 2026-05-01 02:44 1.0M
20260501T00Z_MSC_RDPS_RelativeHumidity_IsbL-0950_RLatLon0.09_PT005H.grib2 2026-05-01 02:44 1.0M
20260501T00Z_MSC_RDPS_RelativeHumidity_IsbL-0970_RLatLon0.09_PT005H.grib2 2026-05-01 02:44 1.0M
20260501T00Z_MSC_RDPS_RelativeHumidity_IsbL-0985_RLatLon0.09_PT005H.grib2 2026-05-01 02:44 1.0M
20260501T00Z_MSC_RDPS_RelativeHumidity_IsbL-1000_RLatLon0.09_PT005H.grib2 2026-05-01 02:44 1.0M
20260501T00Z_MSC_RDPS_RelativeHumidity_IsbL-1015_RLatLon0.09_PT005H.grib2 2026-05-01 02:44 1.0M
20260501T00Z_MSC_RDPS_Runoff-Accum_Sfc_RLatLon0.09_PT005H.grib2 2026-05-01 02:44 50K
20260501T00Z_MSC_RDPS_SWEATIndex_Sfc_RLatLon0.09_PT005H.grib2 2026-05-01 02:44 2.4M
20260501T00Z_MSC_RDPS_SeeingIndex_EAtm_RLatLon0.09_PT005H.grib2 2026-05-01 02:44 1.0M
20260501T00Z_MSC_RDPS_SensibleHeatNetFlux_Sfc_RLatLon0.09_PT005H.grib2 2026-05-01 02:44 279K
20260501T00Z_MSC_RDPS_ShowalterIndex_IsbL-0500_RLatLon0.09_PT005H.grib2 2026-05-01 02:44 2.6M
20260501T00Z_MSC_RDPS_SkyTransparencyIndex_EAtm_RLatLon0.09_PT005H.grib2 2026-05-01 02:44 685K
20260501T00Z_MSC_RDPS_Snow-Accum1h_Sfc_RLatLon0.09_PT005H.grib2 2026-05-01 02:44 417K
20260501T00Z_MSC_RDPS_Snow-Accum_Sfc_RLatLon0.09_PT005H.grib2 2026-05-01 02:44 588K
20260501T00Z_MSC_RDPS_SnowDensity_Sfc_RLatLon0.09_PT005H.grib2 2026-05-01 02:44 167K
20260501T00Z_MSC_RDPS_SnowDepth_Sfc_RLatLon0.09_PT005H.grib2 2026-05-01 02:44 664K
20260501T00Z_MSC_RDPS_SoilTemp_DBS-0to10cm_RLatLon0.09_PT005H.grib2 2026-05-01 02:44 198K
20260501T00Z_MSC_RDPS_SoilTemp_Sfc_RLatLon0.09_PT005H.grib2 2026-05-01 02:44 259K
20260501T00Z_MSC_RDPS_SoilVolumetricIceContent_Sfc_RLatLon0.09_PT005H.grib2 2026-05-01 02:44 162K
20260501T00Z_MSC_RDPS_SoilVolumetricWaterContent_DBS-0to10cm_RLatLon0.09_PT005H.grib2 2026-05-01 02:44 268K
20260501T00Z_MSC_RDPS_SoilVolumetricWaterContent_DBS-0to1cm_RLatLon0.09_PT005H.grib2 2026-05-01 02:44 331K
20260501T00Z_MSC_RDPS_SpecificHumidity_AGL-120m_RLatLon0.09_PT005H.grib2 2026-05-01 02:44 473K
20260501T00Z_MSC_RDPS_SpecificHumidity_AGL-2m_RLatLon0.09_PT005H.grib2 2026-05-01 02:44 634K
20260501T00Z_MSC_RDPS_SpecificHumidity_AGL-40m_RLatLon0.09_PT005H.grib2 2026-05-01 02:44 479K
20260501T00Z_MSC_RDPS_SpecificHumidity_AGL-80m_RLatLon0.09_PT005H.grib2 2026-05-01 02:44 475K
20260501T00Z_MSC_RDPS_SpecificHumidity_IsbL-0001_RLatLon0.09_PT005H.grib2 2026-05-01 02:44 386K
20260501T00Z_MSC_RDPS_SpecificHumidity_IsbL-0005_RLatLon0.09_PT005H.grib2 2026-05-01 02:44 357K
20260501T00Z_MSC_RDPS_SpecificHumidity_IsbL-0010_RLatLon0.09_PT005H.grib2 2026-05-01 02:44 390K
20260501T00Z_MSC_RDPS_SpecificHumidity_IsbL-0020_RLatLon0.09_PT005H.grib2 2026-05-01 02:44 383K
20260501T00Z_MSC_RDPS_SpecificHumidity_IsbL-0030_RLatLon0.09_PT005H.grib2 2026-05-01 02:44 369K
20260501T00Z_MSC_RDPS_SpecificHumidity_IsbL-0050_RLatLon0.09_PT005H.grib2 2026-05-01 02:44 450K
20260501T00Z_MSC_RDPS_SpecificHumidity_IsbL-0100_RLatLon0.09_PT005H.grib2 2026-05-01 02:44 422K
20260501T00Z_MSC_RDPS_SpecificHumidity_IsbL-0150_RLatLon0.09_PT005H.grib2 2026-05-01 02:44 449K
20260501T00Z_MSC_RDPS_SpecificHumidity_IsbL-0175_RLatLon0.09_PT005H.grib2 2026-05-01 02:44 534K
20260501T00Z_MSC_RDPS_SpecificHumidity_IsbL-0200_RLatLon0.09_PT005H.grib2 2026-05-01 02:44 451K
20260501T00Z_MSC_RDPS_SpecificHumidity_IsbL-0225_RLatLon0.09_PT005H.grib2 2026-05-01 02:44 453K
20260501T00Z_MSC_RDPS_SpecificHumidity_IsbL-0250_RLatLon0.09_PT005H.grib2 2026-05-01 02:44 560K
20260501T00Z_MSC_RDPS_SpecificHumidity_IsbL-0275_RLatLon0.09_PT005H.grib2 2026-05-01 02:44 475K
20260501T00Z_MSC_RDPS_SpecificHumidity_IsbL-0300_RLatLon0.09_PT005H.grib2 2026-05-01 02:44 572K
20260501T00Z_MSC_RDPS_SpecificHumidity_IsbL-0350_RLatLon0.09_PT005H.grib2 2026-05-01 02:44 537K
20260501T00Z_MSC_RDPS_SpecificHumidity_IsbL-0400_RLatLon0.09_PT005H.grib2 2026-05-01 02:44 518K
20260501T00Z_MSC_RDPS_SpecificHumidity_IsbL-0450_RLatLon0.09_PT005H.grib2 2026-05-01 02:44 567K
20260501T00Z_MSC_RDPS_SpecificHumidity_IsbL-0500_RLatLon0.09_PT005H.grib2 2026-05-01 02:44 498K
20260501T00Z_MSC_RDPS_SpecificHumidity_IsbL-0550_RLatLon0.09_PT005H.grib2 2026-05-01 02:44 573K
20260501T00Z_MSC_RDPS_SpecificHumidity_IsbL-0600_RLatLon0.09_PT005H.grib2 2026-05-01 02:44 630K
20260501T00Z_MSC_RDPS_SpecificHumidity_IsbL-0650_RLatLon0.09_PT005H.grib2 2026-05-01 02:44 550K
20260501T00Z_MSC_RDPS_SpecificHumidity_IsbL-0700_RLatLon0.09_PT005H.grib2 2026-05-01 02:44 592K
20260501T00Z_MSC_RDPS_SpecificHumidity_IsbL-0750_RLatLon0.09_PT005H.grib2 2026-05-01 02:44 643K
20260501T00Z_MSC_RDPS_SpecificHumidity_IsbL-0800_RLatLon0.09_PT005H.grib2 2026-05-01 02:44 713K
20260501T00Z_MSC_RDPS_SpecificHumidity_IsbL-0850_RLatLon0.09_PT005H.grib2 2026-05-01 02:44 778K
20260501T00Z_MSC_RDPS_SpecificHumidity_IsbL-0875_RLatLon0.09_PT005H.grib2 2026-05-01 02:44 804K
20260501T00Z_MSC_RDPS_SpecificHumidity_IsbL-0900_RLatLon0.09_PT005H.grib2 2026-05-01 02:44 820K
20260501T00Z_MSC_RDPS_SpecificHumidity_IsbL-0925_RLatLon0.09_PT005H.grib2 2026-05-01 02:44 825K
20260501T00Z_MSC_RDPS_SpecificHumidity_IsbL-0950_RLatLon0.09_PT005H.grib2 2026-05-01 02:44 830K
20260501T00Z_MSC_RDPS_SpecificHumidity_IsbL-0970_RLatLon0.09_PT005H.grib2 2026-05-01 02:44 817K
20260501T00Z_MSC_RDPS_SpecificHumidity_IsbL-0985_RLatLon0.09_PT005H.grib2 2026-05-01 02:44 665K
20260501T00Z_MSC_RDPS_SpecificHumidity_IsbL-1000_RLatLon0.09_PT005H.grib2 2026-05-01 02:44 655K
20260501T00Z_MSC_RDPS_SpecificHumidity_IsbL-1015_RLatLon0.09_PT005H.grib2 2026-05-01 02:44 643K
20260501T00Z_MSC_RDPS_SpecificHumidity_Sfc_RLatLon0.09_PT005H.grib2 2026-05-01 02:44 284K
20260501T00Z_MSC_RDPS_StormRelativeHelicity_EtaL-10000_RLatLon0.09_PT005H.grib2 2026-05-01 02:44 1.1M
20260501T00Z_MSC_RDPS_StormSeverityIndex_EtaL-10000_RLatLon0.09_PT005H.grib2 2026-05-01 02:44 1.2M
20260501T00Z_MSC_RDPS_Thickness_IsbL-0850to0700_RLatLon0.09_PT005H.grib2 2026-05-01 02:44 176K
20260501T00Z_MSC_RDPS_Thickness_IsbL-1000to0500_RLatLon0.09_PT005H.grib2 2026-05-01 02:44 196K
20260501T00Z_MSC_RDPS_Thickness_IsbL-1000to0850_RLatLon0.09_PT005H.grib2 2026-05-01 02:44 257K
20260501T00Z_MSC_RDPS_TotalCloudCover_Sfc_RLatLon0.09_PT005H.grib2 2026-05-01 02:44 650K
20260501T00Z_MSC_RDPS_TotalTotalsIndex_Sfc_RLatLon0.09_PT005H.grib2 2026-05-01 02:44 2.3M
20260501T00Z_MSC_RDPS_UVIndex-ClearSky_Sfc_RLatLon0.09_PT005H.grib2 2026-05-01 02:44 99K
20260501T00Z_MSC_RDPS_UVIndex_Sfc_RLatLon0.09_PT005H.grib2 2026-05-01 02:44 169K
20260501T00Z_MSC_RDPS_UpwardLongwaveRadiationFlux_NTAtm_RLatLon0.09_PT005H.grib2 2026-05-01 02:44 486K
20260501T00Z_MSC_RDPS_UpwardShortwaveRadiationFlux_NTAtm_RLatLon0.09_PT005H.grib2 2026-05-01 02:44 141K
20260501T00Z_MSC_RDPS_VerticalVelocity_IsbL-0250_RLatLon0.09_PT005H.grib2 2026-05-01 02:44 548K
20260501T00Z_MSC_RDPS_VerticalVelocity_IsbL-0500_RLatLon0.09_PT005H.grib2 2026-05-01 02:44 538K
20260501T00Z_MSC_RDPS_VerticalVelocity_IsbL-0700_RLatLon0.09_PT005H.grib2 2026-05-01 02:44 587K
20260501T00Z_MSC_RDPS_VerticalVelocity_IsbL-0850_RLatLon0.09_PT005H.grib2 2026-05-01 02:44 695K
20260501T00Z_MSC_RDPS_VerticalWindShear_EtaL-6500_RLatLon0.09_PT005H.grib2 2026-05-01 02:44 1.2M
20260501T00Z_MSC_RDPS_WindChill_Sfc_RLatLon0.09_PT005H.grib2 2026-05-01 02:44 1.1M
20260501T00Z_MSC_RDPS_WindDir_AGL-10m_RLatLon0.09_PT005H.grib2 2026-05-01 02:44 962K
20260501T00Z_MSC_RDPS_WindDir_AGL-120m_RLatLon0.09_PT005H.grib2 2026-05-01 02:44 592K
20260501T00Z_MSC_RDPS_WindDir_AGL-40m_RLatLon0.09_PT005H.grib2 2026-05-01 02:44 630K
20260501T00Z_MSC_RDPS_WindDir_AGL-80m_RLatLon0.09_PT005H.grib2 2026-05-01 02:44 606K
20260501T00Z_MSC_RDPS_WindDir_IsbL-0001_RLatLon0.09_PT005H.grib2 2026-05-01 02:44 314K
20260501T00Z_MSC_RDPS_WindDir_IsbL-0005_RLatLon0.09_PT005H.grib2 2026-05-01 02:44 349K
20260501T00Z_MSC_RDPS_WindDir_IsbL-0010_RLatLon0.09_PT005H.grib2 2026-05-01 02:44 370K
20260501T00Z_MSC_RDPS_WindDir_IsbL-0020_RLatLon0.09_PT005H.grib2 2026-05-01 02:44 406K
20260501T00Z_MSC_RDPS_WindDir_IsbL-0030_RLatLon0.09_PT005H.grib2 2026-05-01 02:44 408K
20260501T00Z_MSC_RDPS_WindDir_IsbL-0050_RLatLon0.09_PT005H.grib2 2026-05-01 02:44 407K
20260501T00Z_MSC_RDPS_WindDir_IsbL-0100_RLatLon0.09_PT005H.grib2 2026-05-01 02:44 422K
20260501T00Z_MSC_RDPS_WindDir_IsbL-0150_RLatLon0.09_PT005H.grib2 2026-05-01 02:44 430K
20260501T00Z_MSC_RDPS_WindDir_IsbL-0175_RLatLon0.09_PT005H.grib2 2026-05-01 02:44 451K
20260501T00Z_MSC_RDPS_WindDir_IsbL-0200_RLatLon0.09_PT005H.grib2 2026-05-01 02:44 457K
20260501T00Z_MSC_RDPS_WindDir_IsbL-0225_RLatLon0.09_PT005H.grib2 2026-05-01 02:44 458K
20260501T00Z_MSC_RDPS_WindDir_IsbL-0250_RLatLon0.09_PT005H.grib2 2026-05-01 02:44 457K
20260501T00Z_MSC_RDPS_WindDir_IsbL-0275_RLatLon0.09_PT005H.grib2 2026-05-01 02:44 478K
20260501T00Z_MSC_RDPS_WindDir_IsbL-0300_RLatLon0.09_PT005H.grib2 2026-05-01 02:44 478K
20260501T00Z_MSC_RDPS_WindDir_IsbL-0350_RLatLon0.09_PT005H.grib2 2026-05-01 02:44 489K
20260501T00Z_MSC_RDPS_WindDir_IsbL-0400_RLatLon0.09_PT005H.grib2 2026-05-01 02:44 506K
20260501T00Z_MSC_RDPS_WindDir_IsbL-0450_RLatLon0.09_PT005H.grib2 2026-05-01 02:44 517K
20260501T00Z_MSC_RDPS_WindDir_IsbL-0500_RLatLon0.09_PT005H.grib2 2026-05-01 02:44 535K
20260501T00Z_MSC_RDPS_WindDir_IsbL-0550_RLatLon0.09_PT005H.grib2 2026-05-01 02:44 558K
20260501T00Z_MSC_RDPS_WindDir_IsbL-0600_RLatLon0.09_PT005H.grib2 2026-05-01 02:44 591K
20260501T00Z_MSC_RDPS_WindDir_IsbL-0650_RLatLon0.09_PT005H.grib2 2026-05-01 02:44 638K
20260501T00Z_MSC_RDPS_WindDir_IsbL-0700_RLatLon0.09_PT005H.grib2 2026-05-01 02:44 689K
20260501T00Z_MSC_RDPS_WindDir_IsbL-0750_RLatLon0.09_PT005H.grib2 2026-05-01 02:44 734K
20260501T00Z_MSC_RDPS_WindDir_IsbL-0800_RLatLon0.09_PT005H.grib2 2026-05-01 02:44 794K
20260501T00Z_MSC_RDPS_WindDir_IsbL-0850_RLatLon0.09_PT005H.grib2 2026-05-01 02:44 854K
20260501T00Z_MSC_RDPS_WindDir_IsbL-0875_RLatLon0.09_PT005H.grib2 2026-05-01 02:44 876K
20260501T00Z_MSC_RDPS_WindDir_IsbL-0900_RLatLon0.09_PT005H.grib2 2026-05-01 02:44 889K
20260501T00Z_MSC_RDPS_WindDir_IsbL-0925_RLatLon0.09_PT005H.grib2 2026-05-01 02:44 899K
20260501T00Z_MSC_RDPS_WindDir_IsbL-0950_RLatLon0.09_PT005H.grib2 2026-05-01 02:44 906K
20260501T00Z_MSC_RDPS_WindDir_IsbL-0970_RLatLon0.09_PT005H.grib2 2026-05-01 02:44 914K
20260501T00Z_MSC_RDPS_WindDir_IsbL-0985_RLatLon0.09_PT005H.grib2 2026-05-01 02:44 919K
20260501T00Z_MSC_RDPS_WindDir_IsbL-1000_RLatLon0.09_PT005H.grib2 2026-05-01 02:44 935K
20260501T00Z_MSC_RDPS_WindDir_IsbL-1015_RLatLon0.09_PT005H.grib2 2026-05-01 02:44 955K
20260501T00Z_MSC_RDPS_WindGust-Max_AGL-10m_RLatLon0.09_PT005H.grib2 2026-05-01 02:44 1.0M
20260501T00Z_MSC_RDPS_WindGust-Min_AGL-10m_RLatLon0.09_PT005H.grib2 2026-05-01 02:44 949K
20260501T00Z_MSC_RDPS_WindGust_AGL-10m_RLatLon0.09_PT005H.grib2 2026-05-01 02:44 973K
20260501T00Z_MSC_RDPS_WindSpeed_AGL-10m_RLatLon0.09_PT005H.grib2 2026-05-01 02:44 820K
20260501T00Z_MSC_RDPS_WindSpeed_AGL-120m_RLatLon0.09_PT005H.grib2 2026-05-01 02:44 528K
20260501T00Z_MSC_RDPS_WindSpeed_AGL-40m_RLatLon0.09_PT005H.grib2 2026-05-01 02:44 657K
20260501T00Z_MSC_RDPS_WindSpeed_AGL-80m_RLatLon0.09_PT005H.grib2 2026-05-01 02:44 529K
20260501T00Z_MSC_RDPS_WindSpeed_IsbL-0001_RLatLon0.09_PT005H.grib2 2026-05-01 02:44 248K
20260501T00Z_MSC_RDPS_WindSpeed_IsbL-0005_RLatLon0.09_PT005H.grib2 2026-05-01 02:44 370K
20260501T00Z_MSC_RDPS_WindSpeed_IsbL-0010_RLatLon0.09_PT005H.grib2 2026-05-01 02:44 291K
20260501T00Z_MSC_RDPS_WindSpeed_IsbL-0020_RLatLon0.09_PT005H.grib2 2026-05-01 02:44 305K
20260501T00Z_MSC_RDPS_WindSpeed_IsbL-0030_RLatLon0.09_PT005H.grib2 2026-05-01 02:44 308K
20260501T00Z_MSC_RDPS_WindSpeed_IsbL-0050_RLatLon0.09_PT005H.grib2 2026-05-01 02:44 333K
20260501T00Z_MSC_RDPS_WindSpeed_IsbL-0100_RLatLon0.09_PT005H.grib2 2026-05-01 02:44 464K
20260501T00Z_MSC_RDPS_WindSpeed_IsbL-0150_RLatLon0.09_PT005H.grib2 2026-05-01 02:44 378K
20260501T00Z_MSC_RDPS_WindSpeed_IsbL-0175_RLatLon0.09_PT005H.grib2 2026-05-01 02:44 426K
20260501T00Z_MSC_RDPS_WindSpeed_IsbL-0200_RLatLon0.09_PT005H.grib2 2026-05-01 02:44 443K
20260501T00Z_MSC_RDPS_WindSpeed_IsbL-0225_RLatLon0.09_PT005H.grib2 2026-05-01 02:44 449K
20260501T00Z_MSC_RDPS_WindSpeed_IsbL-0250_RLatLon0.09_PT005H.grib2 2026-05-01 02:44 454K
20260501T00Z_MSC_RDPS_WindSpeed_IsbL-0275_RLatLon0.09_PT005H.grib2 2026-05-01 02:44 470K
20260501T00Z_MSC_RDPS_WindSpeed_IsbL-0300_RLatLon0.09_PT005H.grib2 2026-05-01 02:44 466K
20260501T00Z_MSC_RDPS_WindSpeed_IsbL-0350_RLatLon0.09_PT005H.grib2 2026-05-01 02:44 474K
20260501T00Z_MSC_RDPS_WindSpeed_IsbL-0400_RLatLon0.09_PT005H.grib2 2026-05-01 02:44 476K
20260501T00Z_MSC_RDPS_WindSpeed_IsbL-0450_RLatLon0.09_PT005H.grib2 2026-05-01 02:44 476K
20260501T00Z_MSC_RDPS_WindSpeed_IsbL-0500_RLatLon0.09_PT005H.grib2 2026-05-01 02:44 459K
20260501T00Z_MSC_RDPS_WindSpeed_IsbL-0550_RLatLon0.09_PT005H.grib2 2026-05-01 02:44 460K
20260501T00Z_MSC_RDPS_WindSpeed_IsbL-0600_RLatLon0.09_PT005H.grib2 2026-05-01 02:44 469K
20260501T00Z_MSC_RDPS_WindSpeed_IsbL-0650_RLatLon0.09_PT005H.grib2 2026-05-01 02:44 612K
20260501T00Z_MSC_RDPS_WindSpeed_IsbL-0700_RLatLon0.09_PT005H.grib2 2026-05-01 02:44 640K
20260501T00Z_MSC_RDPS_WindSpeed_IsbL-0750_RLatLon0.09_PT005H.grib2 2026-05-01 02:44 668K
20260501T00Z_MSC_RDPS_WindSpeed_IsbL-0800_RLatLon0.09_PT005H.grib2 2026-05-01 02:44 752K
20260501T00Z_MSC_RDPS_WindSpeed_IsbL-0850_RLatLon0.09_PT005H.grib2 2026-05-01 02:44 755K
20260501T00Z_MSC_RDPS_WindSpeed_IsbL-0875_RLatLon0.09_PT005H.grib2 2026-05-01 02:44 771K
20260501T00Z_MSC_RDPS_WindSpeed_IsbL-0900_RLatLon0.09_PT005H.grib2 2026-05-01 02:44 786K
20260501T00Z_MSC_RDPS_WindSpeed_IsbL-0925_RLatLon0.09_PT005H.grib2 2026-05-01 02:44 846K
20260501T00Z_MSC_RDPS_WindSpeed_IsbL-0950_RLatLon0.09_PT005H.grib2 2026-05-01 02:44 852K
20260501T00Z_MSC_RDPS_WindSpeed_IsbL-0970_RLatLon0.09_PT005H.grib2 2026-05-01 02:44 848K
20260501T00Z_MSC_RDPS_WindSpeed_IsbL-0985_RLatLon0.09_PT005H.grib2 2026-05-01 02:44 838K
20260501T00Z_MSC_RDPS_WindSpeed_IsbL-1000_RLatLon0.09_PT005H.grib2 2026-05-01 02:44 832K
20260501T00Z_MSC_RDPS_WindSpeed_IsbL-1015_RLatLon0.09_PT005H.grib2 2026-05-01 02:44 822K
20260501T00Z_MSC_RDPS_WindU_AGL-10m_RLatLon0.09_PT005H.grib2 2026-05-01 02:44 424K
20260501T00Z_MSC_RDPS_WindU_AGL-120m_RLatLon0.09_PT005H.grib2 2026-05-01 02:44 527K
20260501T00Z_MSC_RDPS_WindU_AGL-40m_RLatLon0.09_PT005H.grib2 2026-05-01 02:44 530K
20260501T00Z_MSC_RDPS_WindU_AGL-80m_RLatLon0.09_PT005H.grib2 2026-05-01 02:44 529K
20260501T00Z_MSC_RDPS_WindU_IsbL-0001_RLatLon0.09_PT005H.grib2 2026-05-01 02:44 237K
20260501T00Z_MSC_RDPS_WindU_IsbL-0005_RLatLon0.09_PT005H.grib2 2026-05-01 02:44 276K
20260501T00Z_MSC_RDPS_WindU_IsbL-0010_RLatLon0.09_PT005H.grib2 2026-05-01 02:44 283K
20260501T00Z_MSC_RDPS_WindU_IsbL-0020_RLatLon0.09_PT005H.grib2 2026-05-01 02:44 338K
20260501T00Z_MSC_RDPS_WindU_IsbL-0030_RLatLon0.09_PT005H.grib2 2026-05-01 02:44 299K
20260501T00Z_MSC_RDPS_WindU_IsbL-0050_RLatLon0.09_PT005H.grib2 2026-05-01 02:44 327K
20260501T00Z_MSC_RDPS_WindU_IsbL-0100_RLatLon0.09_PT005H.grib2 2026-05-01 02:44 419K
20260501T00Z_MSC_RDPS_WindU_IsbL-0150_RLatLon0.09_PT005H.grib2 2026-05-01 02:44 396K
20260501T00Z_MSC_RDPS_WindU_IsbL-0175_RLatLon0.09_PT005H.grib2 2026-05-01 02:44 420K
20260501T00Z_MSC_RDPS_WindU_IsbL-0200_RLatLon0.09_PT005H.grib2 2026-05-01 02:44 338K
20260501T00Z_MSC_RDPS_WindU_IsbL-0225_RLatLon0.09_PT005H.grib2 2026-05-01 02:44 343K
20260501T00Z_MSC_RDPS_WindU_IsbL-0250_RLatLon0.09_PT005H.grib2 2026-05-01 02:44 345K
20260501T00Z_MSC_RDPS_WindU_IsbL-0275_RLatLon0.09_PT005H.grib2 2026-05-01 02:44 358K
20260501T00Z_MSC_RDPS_WindU_IsbL-0300_RLatLon0.09_PT005H.grib2 2026-05-01 02:44 354K
20260501T00Z_MSC_RDPS_WindU_IsbL-0350_RLatLon0.09_PT005H.grib2 2026-05-01 02:44 361K
20260501T00Z_MSC_RDPS_WindU_IsbL-0400_RLatLon0.09_PT005H.grib2 2026-05-01 02:44 363K
20260501T00Z_MSC_RDPS_WindU_IsbL-0450_RLatLon0.09_PT005H.grib2 2026-05-01 02:44 465K
20260501T00Z_MSC_RDPS_WindU_IsbL-0500_RLatLon0.09_PT005H.grib2 2026-05-01 02:44 466K
20260501T00Z_MSC_RDPS_WindU_IsbL-0550_RLatLon0.09_PT005H.grib2 2026-05-01 02:44 467K
20260501T00Z_MSC_RDPS_WindU_IsbL-0600_RLatLon0.09_PT005H.grib2 2026-05-01 02:44 476K
20260501T00Z_MSC_RDPS_WindU_IsbL-0650_RLatLon0.09_PT005H.grib2 2026-05-01 02:44 482K
20260501T00Z_MSC_RDPS_WindU_IsbL-0700_RLatLon0.09_PT005H.grib2 2026-05-01 02:44 508K
20260501T00Z_MSC_RDPS_WindU_IsbL-0750_RLatLon0.09_PT005H.grib2 2026-05-01 02:44 533K
20260501T00Z_MSC_RDPS_WindU_IsbL-0800_RLatLon0.09_PT005H.grib2 2026-05-01 02:44 568K
20260501T00Z_MSC_RDPS_WindU_IsbL-0850_RLatLon0.09_PT005H.grib2 2026-05-01 02:44 611K
20260501T00Z_MSC_RDPS_WindU_IsbL-0875_RLatLon0.09_PT005H.grib2 2026-05-01 02:44 625K
20260501T00Z_MSC_RDPS_WindU_IsbL-0900_RLatLon0.09_PT005H.grib2 2026-05-01 02:44 635K
20260501T00Z_MSC_RDPS_WindU_IsbL-0925_RLatLon0.09_PT005H.grib2 2026-05-01 02:44 645K
20260501T00Z_MSC_RDPS_WindU_IsbL-0950_RLatLon0.09_PT005H.grib2 2026-05-01 02:44 647K
20260501T00Z_MSC_RDPS_WindU_IsbL-0970_RLatLon0.09_PT005H.grib2 2026-05-01 02:44 646K
20260501T00Z_MSC_RDPS_WindU_IsbL-0985_RLatLon0.09_PT005H.grib2 2026-05-01 02:44 778K
20260501T00Z_MSC_RDPS_WindU_IsbL-1000_RLatLon0.09_PT005H.grib2 2026-05-01 02:44 773K
20260501T00Z_MSC_RDPS_WindU_IsbL-1015_RLatLon0.09_PT005H.grib2 2026-05-01 02:44 812K
20260501T00Z_MSC_RDPS_WindV_AGL-10m_RLatLon0.09_PT005H.grib2 2026-05-01 02:44 421K
20260501T00Z_MSC_RDPS_WindV_AGL-120m_RLatLon0.09_PT005H.grib2 2026-05-01 02:44 524K
20260501T00Z_MSC_RDPS_WindV_AGL-40m_RLatLon0.09_PT005H.grib2 2026-05-01 02:44 525K
20260501T00Z_MSC_RDPS_WindV_AGL-80m_RLatLon0.09_PT005H.grib2 2026-05-01 02:44 525K
20260501T00Z_MSC_RDPS_WindV_IsbL-0001_RLatLon0.09_PT005H.grib2 2026-05-01 02:44 240K
20260501T00Z_MSC_RDPS_WindV_IsbL-0005_RLatLon0.09_PT005H.grib2 2026-05-01 02:44 277K
20260501T00Z_MSC_RDPS_WindV_IsbL-0010_RLatLon0.09_PT005H.grib2 2026-05-01 02:44 285K
20260501T00Z_MSC_RDPS_WindV_IsbL-0020_RLatLon0.09_PT005H.grib2 2026-05-01 02:44 300K
20260501T00Z_MSC_RDPS_WindV_IsbL-0030_RLatLon0.09_PT005H.grib2 2026-05-01 02:44 302K
20260501T00Z_MSC_RDPS_WindV_IsbL-0050_RLatLon0.09_PT005H.grib2 2026-05-01 02:44 327K
20260501T00Z_MSC_RDPS_WindV_IsbL-0100_RLatLon0.09_PT005H.grib2 2026-05-01 02:44 417K
20260501T00Z_MSC_RDPS_WindV_IsbL-0150_RLatLon0.09_PT005H.grib2 2026-05-01 02:44 392K
20260501T00Z_MSC_RDPS_WindV_IsbL-0175_RLatLon0.09_PT005H.grib2 2026-05-01 02:44 418K
20260501T00Z_MSC_RDPS_WindV_IsbL-0200_RLatLon0.09_PT005H.grib2 2026-05-01 02:44 432K
20260501T00Z_MSC_RDPS_WindV_IsbL-0225_RLatLon0.09_PT005H.grib2 2026-05-01 02:44 437K
20260501T00Z_MSC_RDPS_WindV_IsbL-0250_RLatLon0.09_PT005H.grib2 2026-05-01 02:44 441K
20260501T00Z_MSC_RDPS_WindV_IsbL-0275_RLatLon0.09_PT005H.grib2 2026-05-01 02:44 357K
20260501T00Z_MSC_RDPS_WindV_IsbL-0300_RLatLon0.09_PT005H.grib2 2026-05-01 02:44 352K
20260501T00Z_MSC_RDPS_WindV_IsbL-0350_RLatLon0.09_PT005H.grib2 2026-05-01 02:44 460K
20260501T00Z_MSC_RDPS_WindV_IsbL-0400_RLatLon0.09_PT005H.grib2 2026-05-01 02:44 463K
20260501T00Z_MSC_RDPS_WindV_IsbL-0450_RLatLon0.09_PT005H.grib2 2026-05-01 02:44 461K
20260501T00Z_MSC_RDPS_WindV_IsbL-0500_RLatLon0.09_PT005H.grib2 2026-05-01 02:44 463K
20260501T00Z_MSC_RDPS_WindV_IsbL-0550_RLatLon0.09_PT005H.grib2 2026-05-01 02:44 465K
20260501T00Z_MSC_RDPS_WindV_IsbL-0600_RLatLon0.09_PT005H.grib2 2026-05-01 02:44 457K
20260501T00Z_MSC_RDPS_WindV_IsbL-0650_RLatLon0.09_PT005H.grib2 2026-05-01 02:44 479K
20260501T00Z_MSC_RDPS_WindV_IsbL-0700_RLatLon0.09_PT005H.grib2 2026-05-01 02:44 503K
20260501T00Z_MSC_RDPS_WindV_IsbL-0750_RLatLon0.09_PT005H.grib2 2026-05-01 02:44 529K
20260501T00Z_MSC_RDPS_WindV_IsbL-0800_RLatLon0.09_PT005H.grib2 2026-05-01 02:44 565K
20260501T00Z_MSC_RDPS_WindV_IsbL-0850_RLatLon0.09_PT005H.grib2 2026-05-01 02:44 607K
20260501T00Z_MSC_RDPS_WindV_IsbL-0875_RLatLon0.09_PT005H.grib2 2026-05-01 02:44 623K
20260501T00Z_MSC_RDPS_WindV_IsbL-0900_RLatLon0.09_PT005H.grib2 2026-05-01 02:44 633K
20260501T00Z_MSC_RDPS_WindV_IsbL-0925_RLatLon0.09_PT005H.grib2 2026-05-01 02:44 781K
20260501T00Z_MSC_RDPS_WindV_IsbL-0950_RLatLon0.09_PT005H.grib2 2026-05-01 02:44 783K
20260501T00Z_MSC_RDPS_WindV_IsbL-0970_RLatLon0.09_PT005H.grib2 2026-05-01 02:44 782K
20260501T00Z_MSC_RDPS_WindV_IsbL-0985_RLatLon0.09_PT005H.grib2 2026-05-01 02:44 773K
20260501T00Z_MSC_RDPS_WindV_IsbL-1000_RLatLon0.09_PT005H.grib2 2026-05-01 02:44 813K
20260501T00Z_MSC_RDPS_WindV_IsbL-1015_RLatLon0.09_PT005H.grib2 2026-05-01 02:44 804K